Regional Weather Roundup
Issued by NWS

Home | Current Version | Previous Version | Text Only | Print | Product List | Glossary Off
Versions: 1 2 3 4 5 6 7 8 9 10 11 12 13 14 15 16 17 18 19 20 21 22 23 24 25 26 27 28 29 30 31 32 33 34 35 36 37 38 39 40 41 42 43 44 45 46 47 48 49 50

000
ASUS43 KLOT 071408
RWRIL

ILLINOIS REGIONAL WEATHER ROUNDUP
NATIONAL WEATHER SERVICE CHICAGO/ROMEOVILLE IL
800 AM CST SUN FEB 07 2016

NOTE: "FAIR" INDICATES FEW OR NO CLOUDS BELOW 12,000 FEET WITH NO
SIGNIFICANT WEATHER AND/OR OBSTRUCTIONS TO VISIBILITY.

* THESE STATIONS ARE NOT UNDER NWS QUALITY CONTROL. THEY ALSO MAY NOT
  REPORT WEATHER SUCH AS PRECIPITATION OR FOG.

ILZ001-002-007-009-015-016-024-071500-
NORTHWEST ILLINOIS

CITY           SKY/WX    TMP DP  RH WIND       PRES   REMARKS
MOLINE         CLOUDY    38  28  67 SW15      29.82F WCI  29
STERLING*      CLOUDY    36  28  75 SW6       29.79F WCI  31
SAVANNA*       PTCLDY    38  29  71 SW10G16   29.81F WCI  31
$$

ILZ003-004-008-010-011-017-018-071500-
NORTH CENTRAL ILLINOIS

CITY           SKY/WX    TMP DP  RH WIND       PRES   REMARKS
ROCKFORD       CLOUDY    37  29  72 SW16G23   29.81F WCI  28
FREEPORT*      CLOUDY    35  29  80 SW15G23   29.79F WCI  25
ROCHELLE*      CLOUDY    35  30  83 SW15      29.82F WCI  25
DE KALB*       CLOUDY    35  31  85 SW12      29.83R WCI  27
PERU*          PTCLDY    -7 -15  67 SW20      29.86S WCI -32
$$

ILZ005-006-012>014-019>023-071500-
NORTHEAST ILLINOIS

CITY           SKY/WX    TMP DP  RH WIND       PRES   REMARKS
CHICAGO-OHARE  CLOUDY    38  29  70 SW15G22   29.82F WCI  29
CHICAGO-MIDWAY CLOUDY    38  28  67 S12       29.85F WCI  30
AURORA         CLOUDY    37  29  72 S12       29.84F WCI  29
LANSING*       CLOUDY    37  30  76 SW15      29.88F WCI  28
JOLIET*        CLOUDY    38  31  75 SW8G16    29.86F WCI  32
WAUKEGAN       CLOUDY    39  29  67 SW20      29.79F WCI  29
DUPAGE AIRPORT MOCLDY    36  28  73 S12       29.83F WCI  28
KANKAKEE*      CLOUDY    37  30  76 SW16G22   29.90F WCI  28
WHEELING       CLOUDY    38  29  70 S13       29.83F WCI  30
MORRIS*        PTCLDY    37  30  78 SW14      29.85F WCI  28
ROMEOVILLE*    CLOUDY    37  29  74 SW15      29.84F WCI  27
NORTHERLY ISL    N/A     39  28  65 S12         N/A  WCI  32
$$

LMZ740>746-071500-
SOUTHERN LAKE MICHIGAN

STATION/POSITION SKY/WX   TEMP    WIND        PRES    VSBY  WAVE
                          AIR SEA DIR/SP/G                  HT/PER
                          (F)     (DEG/KT/KT) (MB)    (MI)  (FT/S)
HARRISON CRIB              40     200/ 22/ 24   N/A
BURNHAM HARBOR             39     200/  9/ 15   N/A
CALUMET HARBOR             39     200/ 13/ 18 1011.2F
BURNS HARBOR               38     190/ 14/ 22 1012.9F
MICHIGAN CITY              38     160/ 14/ 17   N/A
$$

ILZ025>027-034>036-040-047-049-050-058-095>099-071500-
WEST-CENTRAL ILLINOIS

CITY           SKY/WX    TMP DP  RH WIND       PRES   REMARKS
QUINCY         PTCLDY    40  27  59 SW17      29.92S
GALESBURG*     CLOUDY    36  30  79 SW8       29.87F WCI  29
MACOMB*        CLOUDY    38  30  73 SW16G22   29.90S WCI  28
JACKSONVILLE*  PTCLDY    41  31  67 S12       29.93F
PITTSFIELD*    PTCLDY    41  29  62 SW12      29.94S
$$

ILZ028>032-037-038-041>044-048-051>054-059>061-071500-
CENTRAL ILLINOIS

CITY           SKY/WX    TMP DP  RH WIND       PRES   REMARKS
PONTIAC        CLOUDY    39  32  77 SW17G23   29.89F WCI  29
BLOOMINGTON    CLOUDY    37  30  76 SW16G24   29.91F WCI  27
DECATUR        CLOUDY    38  26  62 SW13      29.96F WCI  30
PEORIA         PTCLDY    37  28  70 SW9       29.90F WCI  30
LACON*         CLOUDY    37  28  71 SW9       29.87R WCI  30
LINCOLN*       PTCLDY    40  30  67 SW9G17    29.92F
SPRINGFIELD    PTCLDY    40  28  62 SW13      29.94F
TAYLORVILLE    CLOUDY    36  28  75 S12       29.97F WCI  27
$$

ILZ033-039-045-046-055>057-062-063-071500-
EAST-CENTRAL ILLINOIS

CITY           SKY/WX    TMP DP  RH WIND       PRES   REMARKS
CHAMPAIGN      MOSUNNY   36  28  73 S15       29.95F WCI  27
RANTOUL*       CLOUDY    40  31  70 SW15G23   29.94F
MATTOON        MOSUNNY   39  25  57 S12       29.98F WCI  32
PARIS*         MOSUNNY   37  27  69 S13       30.00F WCI  28
$$

ILZ079-100>102-071500-
SOUTHWEST ILLINOIS

CITY           SKY/WX    TMP DP  RH WIND       PRES   REMARKS
ALTON          PTCLDY    37  27  65 S12       30.01F WCI  30
BELLEVILLE     CLEAR     38  26  62 S10       30.01F WCI  31
CAHOKIA*       CLEAR     42  24  49 SW8       30.02F
SPARTA*        SUNNY     37  22  55 S9        30.07F WCI  30
$$

ILZ064>066-069>071-074>076-080>082-084>086-088>090-092>094-071500-
SOUTH-CENTRAL ILLINOIS

CITY           SKY/WX    TMP DP  RH WIND       PRES   REMARKS
CARBONDALE     SUNNY     37  22  54 S8        30.10F WCI  31
CAIRO*         SUNNY     35  28  73 CALM      30.15R
EFFINGHAM*     SUNNY     39  27  61 S9        30.03F WCI  33
MARION         MOSUNNY   37  25  60 S9        30.11S WCI  31
MT. VERNON     SUNNY     36  25  64 SW13      30.08S WCI  27
CENTRALIA*     SUNNY     38  28  66 S12       30.04F WCI  31
SALEM*         SUNNY     41  26  55 S13       30.04F
METROPOLIS*    SUNNY     35  27  72 SW5       30.16R WCI  31
$$

ILZ067-068-072-073-078-083-087-091-071500-
SOUTHEAST ILLINOIS

CITY           SKY/WX    TMP DP  RH WIND       PRES   REMARKS
LAWRENCEVILLE  SUNNY     36  25  64 S12       30.07F WCI  28
FLORA*         SUNNY     39  26  61 SW10      30.06F WCI  32
FAIRFIELD*     MOSUNNY   37  26  64 S7        30.07F WCI  32
HARRISBURG*    SUNNY     37  25  64 SW5       30.12S WCI  33
ROBINSON*      SUNNY     36  25  64 S10       30.05F WCI  28
CARMI*         SUNNY     38  25  59 S8        30.10S WCI  32
$$

ABBREVIATIONS USED IN REMARKS
   TC - TEMPERATURE IN CELSIUS
  WCI - WIND CHILL INDEX
   HX - HEAT INDEX
  VSB - VISIBILITY
$$




USA.gov is the U.S. government's official web portal to all federal, state and local government web resources and services.